Regional Weather Roundup
Issued by NWS

Home | Current Version | Previous Version | Text Only | Print | Product List | Glossary Off
Versions: 1 2 3 4 5 6 7 8 9 10 11 12 13 14 15 16 17 18 19 20 21 22 23 24 25 26 27 28 29 30 31 32 33 34 35 36 37 38 39 40 41 42 43 44 45 46 47 48 49 50

000
ASUS43 KMKX 250721
RWRWI

WISCONSIN REGIONAL WEATHER ROUNDUP
NATIONAL WEATHER SERVICE MILWAUKEE/SULLIVAN WI
200 AM CDT WED MAY 25 2016

NOTE: "FAIR" INDICATES FEW OR NO CLOUDS BELOW 12,000 FEET WITH NO
SIGNIFICANT WEATHER AND/OR OBSTRUCTIONS TO VISIBILITY.

WIZ001-002-006>008-014>016-023>028-250800-
NORTHWEST WISCONSIN

CITY           SKY/WX    TMP DP  RH WIND       PRES   REMARKS
SUPERIOR ARPT  FOG       46  46 100 NE6       30.04R VSB 1/2
ASHLAND        FOG       48  48 100 E6        30.02F VSB 1/4
HAYWARD        CLEAR     58  55  90 VRB6      29.99R
SIREN          CLOUDY    58  57  96 CALM      29.97S
CUMBERLAND     CLOUDY    61  57  88 SE5       29.98S
RICE LAKE      CLOUDY    59  56  90 CALM      29.99S
CHETEK         NOT AVBL
LADYSMITH      CLEAR     60  58  91 E3        30.00F
EAU CLAIRE     CLOUDY    57  55  93 CALM      29.95S
MENOMONIE      CLOUDY    57  54  88 CALM      29.96S
NEW RICHMOND   CLEAR     63  53  68 SE5       29.96R
OSCEOLA        CLOUDY    61  59  92 CALM      29.98R
$$

WIZ003>005-009-010-017-018-250800-
NORTH CENTRAL WISCONSIN

CITY           SKY/WX    TMP DP  RH WIND       PRES   REMARKS
MANITOWISH WTR NOT AVBL
ARBOR VITAE    FOG       57  56  95 CALM      30.00S VSB 1/4
WOODRUFF       FOG       57  56  95 CALM      30.00S VSB 1/4
RHINELANDER    FOG       53  52  96 CALM      30.01S VSB 1/4
EAGLE RIVER    FOG       57  57 100 CALM      30.01S VSB 1/4
LAND O LAKES   FOG       58  58 100 CALM      30.02F VSB 3/4
PHILLIPS       FOG       52  52 100 CALM      29.99S VSB 1/4
TOMAHAWK       FOG       49  49  97 CALM      30.01S VSB 3/4
MEDFORD        CLEAR     57  57 100 E5        29.99F
MERRILL          N/A     54  54 100 CALM      30.00S FOG
$$

WIZ029-030-035-036-043>047-250800-
CENTRAL WISCONSIN

CITY           SKY/WX    TMP DP  RH WIND       PRES   REMARKS
WAUSAU         CLEAR     62  57  83 CALM      29.97S
MOSINEE        CLEAR     59  55  88 NE3       30.00R
MARSHFIELD     CLEAR     64  56  75 NE7       29.97R
STEVENS POINT  CLEAR     55  52  91 CALM      29.99S
WAUPACA        CLEAR     60  59  96 CALM      29.98R
WAUTOMA        NOT AVBL
WISC RAPIDS    CLEAR     57  54  89 CALM      29.98R
CAMP DOUGLAS   FOG       49  49 100 CALM      29.96S VSB 1/2
$$

WIZ011>013-019>022-031-037>040-048>050-250800-
NORTHEAST WISCONSIN

CITY           SKY/WX    TMP DP  RH WIND       PRES   REMARKS
ANTIGO         CLEAR     54  54  99 CALM      30.00S
SHAWANO        CLEAR     60  57  91 CALM      29.98R FOG
OCONTO         CLEAR     56  56 100 N3        29.98R
STURGEON BAY   NOT AVBL
GREEN BAY      CLEAR     61  58  90 CALM      29.97R
MANITOWOC      CLEAR     57  55  93 W3        29.96S
APPLETON       CLEAR     63  52  67 N10       29.96R
CLINTONVILLE   CLEAR     59  54  82 CALM      29.97R
OSHKOSH        CLEAR     59  55  87 CALM      29.96R
$$

WIZ032>034-041-042-053>061-250800-
SOUTHWEST WISCONSIN

CITY           SKY/WX    TMP DP  RH WIND       PRES   REMARKS
LA CROSSE      CLEAR     64  59  83 E3        29.95R
SPARTA         CLEAR     52  52  99 CALM      29.97S
VIROQUA        CLEAR     61  57  86 E6        29.98R
BOSCOBEL       FOG       57  56  96 CALM      29.97R VSB 1
PRAIRIE DU CHI CLOUDY    62  60  91 CALM      29.96R
PLATTEVILLE    CLOUDY    68  61  77 S6        29.97R
$$

WIZ056-057-062-063-064-067-068-250800-
SOUTH CENTRAL WISCONSIN

CITY           SKY/WX    TMP DP  RH WIND       PRES   REMARKS
REEDSBURG      CLEAR     58  58 100 CALM      29.96S
BARABOO/DELLS  CLEAR     58  55  91 CALM      29.97R
LONE ROCK      CLEAR     59  57  93 CALM      29.97R
MINERAL POINT  PTCLDY    70  59  68 E3        29.97R
MADISON        CLEAR     62  60  93 N3        29.96R
MIDDLETON      CLEAR     61  57  89 CALM      29.97S
WATERTOWN      MOCLDY    62  62 100 CALM      29.96R
MONROE         PTCLDY    68  59  73 SE7       29.97S
JANESVILLE     CLEAR     64  61  88 E3        29.96S
$$

WIZ051-052-058>065-066-070>072-250800-
SOUTHEAST WISCONSIN

CITY           SKY/WX    TMP DP  RH WIND       PRES   REMARKS
MILWAUKEE      PTCLDY    63  52  67 CALM      29.97R
WAUKESHA       PTCLDY    59  59 100 S3        29.99R FOG
MILWAUKEE/TIMM PTCLDY    61  57  88 CALM      29.98R FOG
RACINE         CLEAR     61  53  75 SW7       29.99R
BURLINGTON     PTCLDY    62  58  88 CALM      29.98R
KENOSHA        CLEAR     66  56  70 S9        29.98R
FOND DU LAC    CLEAR     58  56  93 CALM      29.97R
SHEBOYGAN      CLEAR     56  54  93 CALM      29.96R FOG
WEST BEND      CLEAR     59  57  94 CALM      29.98R
JUNEAU         CLEAR     62  59  89 E3        29.98R
$$

LSZ147-162-250800-
LAKE SUPERIOR

STATION/POSITION TIME  TEMP    WIND        PRES    WAVE
                       AIR SEA DIR/SP/G            HT/PER
                 (UTC) (F)     (DEG/KT/KT) (MB)    (FT/S)
W MID LAKE BUOY  0650   40 38   70/  8/  8 1017.3F   2/ 4
DEVILS ISLAND    0700   45      70/ 11/ 11 1017.1F
SAXON HARBOR     0600   45     340/  3/  6 1016.6
$$

LMZ867-665-643>646-250800-
LAKE MICHIGAN

STATION/POSITION TIME  TEMP    WIND        PRES    WAVE
                       AIR SEA DIR/SP/G            HT/PER
                 (UTC) (F)     (DEG/KT/KT) (MB)    (FT/S)
CHAMBERS ISLAND  0600   54      30/  7/  9 1015.2R
N MID LAKE BUOY  0650   47 44  100/  6/  6 1015.3R   1/ 5
NORTHPORT PIER   0600   51      CALM  /  3 1015.2R
SISTER BAY       0619   54        CALM       N/A
ALGOMA LAKESHORE 0617           90/  2/  7   N/A
KEWAUNEE LAKESHO 0600   61     310/  6/  6 1013.5R
SHEBOYGAN LAKESH 0700   65     220/  6/  6 1014.8R
PORT WASHINGTON  0600   63     280/  2/  4 1015.2
S MID LAKE BUOY  0650   59 49  200/  6/  8 1015.0R   0
KENOSHA   LAKESH 0700   68     220/  9/ 12 1014.9R
$$

TC  - TEMPERATURE IN CELSIUS
VSB - VISIBILITY IN STATUTE MILES
WCI - WIND CHILL INDEX
HX  - HEAT INDEX





USA.gov is the U.S. government's official web portal to all federal, state and local government web resources and services.